Date String (YYYY-MM-DD hh:mm:ss) UTC,Instrument flags,Ambient pressure (hPa),Sample flow (lpm),Bypass flow (lpm),Sample temperature (°C),Ambient temperature (°C),ASC tube jacket temperature (°C),LED temperature (°C),Box temperature (°C),Sample RH (%),Span deviation,Mass concentration (μg/m³),Mass concentration (μg/m³),Mass concentration (μg/m³)
DateTimeUTC,F1_M11,P_M11,Q1_M11,Q2_M11,T1_M11,T2_M11,T3_M11,T4_M11,T5_M11,U1_M11,ZSPAN_M11,X0_M11,X2_M11,X1_M11
2022-12-20 20:00:00,,0827.9,5.01,0.00,23.3,22.2,00.0,32.1,25.1,06.1,0000.0,0006.13,0003.25,0002.20
2022-12-20 20:01:00,,0827.9,4.98,0.00,23.3,22.2,00.0,32.1,25.1,06.1,0000.0,0006.20,0003.25,0002.18
2022-12-20 20:02:00,,0827.9,5.02,0.00,23.3,22.1,00.0,32.1,25.0,06.2,0000.0,0006.68,0003.22,0002.13
2022-12-20 20:03:00,,0827.8,4.95,0.00,23.3,22.1,00.0,32.1,25.0,06.2,0000.0,0006.92,0003.19,0002.08
2022-12-20 20:04:00,,0827.9,5.03,0.00,23.2,22.0,00.0,32.1,25.0,06.2,0000.0,0006.87,0003.17,0002.05
2022-12-20 20:05:00,,0827.9,5.02,0.00,23.2,21.9,00.0,32.1,25.0,06.2,0000.0,0006.68,0003.11,0002.04
2022-12-20 20:06:00,,0827.8,4.95,0.00,23.2,21.9,00.0,32.1,25.0,06.2,0000.0,0006.49,0003.07,0002.04
2022-12-20 20:07:00,,0827.8,5.02,0.00,23.2,22.0,00.0,32.1,25.0,06.2,0000.0,0006.23,0003.05,0002.07
2022-12-20 20:08:00,,0827.9,5.01,0.00,23.2,22.0,00.0,32.1,25.0,06.3,0000.0,0006.21,0002.99,0002.05
2022-12-20 20:09:00,,0827.9,4.97,0.00,23.2,22.0,00.0,32.1,25.0,06.3,0000.0,0006.14,0002.91,0002.02
2022-12-20 20:10:00,,0827.9,5.04,0.00,23.2,22.0,00.0,32.1,25.0,06.3,0000.0,0005.98,0002.84,0001.99
2022-12-20 20:11:00,,0827.9,4.94,0.00,23.2,22.1,00.0,32.1,25.0,06.4,0000.0,0006.00,0002.75,0001.95
2022-12-20 20:12:00,,0827.9,5.02,0.00,23.2,22.1,00.0,32.1,25.1,06.4,0000.0,0005.95,0002.68,0001.90
2022-12-20 20:13:00,,0827.8,5.01,0.00,23.2,22.1,00.0,32.1,25.1,06.3,0000.0,0005.45,0002.67,0001.89
2022-12-20 20:14:00,,0827.7,4.97,0.00,23.2,22.0,00.0,32.1,25.1,06.3,0000.0,0005.54,0002.68,0001.90
2022-12-20 20:15:00,,0827.7,5.02,0.00,23.3,22.0,00.0,32.1,25.1,06.3,0000.0,0005.90,0002.68,0001.90
2022-12-20 20:16:00,,0827.7,5.00,0.00,23.3,22.1,00.0,32.1,25.1,06.3,0000.0,0006.40,0002.64,0001.89
2022-12-20 20:17:00,,0827.7,4.97,0.00,23.3,22.1,00.0,32.1,25.1,06.3,0000.0,0006.71,0002.62,0001.86
2022-12-20 20:18:00,,0827.7,5.03,0.00,23.3,22.1,00.0,32.1,25.1,06.3,0000.0,0006.75,0002.57,0001.82
2022-12-20 20:19:00,,0827.7,4.97,0.00,23.3,22.1,00.0,32.1,25.1,06.3,0000.0,0007.03,0002.53,0001.81
2022-12-20 20:20:00,,0827.7,5.02,0.00,23.3,22.0,00.0,32.1,25.1,06.4,0000.0,0007.88,0002.54,0001.82
2022-12-20 20:21:00,,0827.7,5.04,0.00,23.3,21.8,00.0,32.1,25.0,06.4,0000.0,0008.73,0002.80,0001.97
2022-12-20 20:22:00,,0827.7,4.95,0.00,23.2,21.7,00.0,32.1,25.0,06.4,0000.0,0010.56,0003.15,0002.26
2022-12-20 20:23:00,,0827.7,5.02,0.00,23.2,21.6,00.0,32.1,25.0,06.3,0000.0,0011.53,0003.39,0002.55
2022-12-20 20:24:00,,0827.7,5.01,0.00,23.2,21.6,00.0,32.1,24.9,06.3,0000.0,0012.61,0003.58,0002.82
2022-12-20 20:25:00,,0827.7,4.97,0.00,23.2,21.6,00.0,32.1,24.9,06.3,0000.0,0013.53,0003.80,0003.06
2022-12-20 20:26:00,,0827.8,5.03,0.00,23.2,21.6,00.0,32.1,24.9,06.4,0000.0,0014.74,0004.00,0003.23
2022-12-20 20:27:00,,0827.7,5.01,0.00,23.2,21.6,00.0,32.1,24.9,06.4,0000.0,0015.35,0004.20,0003.37
2022-12-20 20:28:00,,0827.7,4.97,0.00,23.1,21.5,00.0,32.1,24.9,06.4,0000.0,0015.82,0004.35,0003.51
2022-12-20 20:29:00,,0827.7,5.03,0.00,23.1,21.4,00.0,32.0,24.8,06.3,0000.0,0016.17,0004.52,0003.64
2022-12-20 20:30:00,,0827.7,5.01,0.00,23.1,21.4,00.0,32.0,24.8,06.4,0000.0,0017.05,0004.78,0003.77
2022-12-20 20:31:00,,0827.7,4.98,0.00,23.1,21.4,00.0,32.0,24.9,06.3,0000.0,0018.02,0005.01,0003.91
2022-12-20 20:32:00,,0827.6,5.03,0.00,23.1,21.5,00.0,32.0,24.9,06.3,0000.0,0018.64,0005.10,0003.97
2022-12-20 20:33:00,,0827.6,4.95,0.00,23.1,21.5,00.0,32.0,24.8,06.3,0000.0,0017.40,0005.10,0003.95
2022-12-20 20:34:00,,0827.6,5.03,0.00,23.1,21.5,00.0,32.0,24.8,06.4,0000.0,0017.18,0005.09,0003.94
2022-12-20 20:35:00,,0827.6,5.02,0.00,23.1,21.6,00.0,32.0,24.9,06.3,0000.0,0016.83,0005.12,0003.94
2022-12-20 20:36:00,,0827.6,4.96,0.00,23.1,21.7,00.0,31.9,24.9,06.3,0000.0,0016.95,0005.17,0003.94
2022-12-20 20:37:00,,0827.6,5.03,0.00,23.1,21.7,00.0,31.9,24.9,06.4,0000.0,0016.37,0005.23,0003.96
2022-12-20 20:38:00,,0827.7,4.99,0.00,23.1,21.8,00.0,31.9,24.9,06.4,0000.0,0016.28,0005.27,0003.98
2022-12-20 20:39:00,,0827.6,4.99,0.00,23.1,21.9,00.0,31.9,24.9,06.4,0000.0,0017.06,0005.34,0004.00
2022-12-20 20:40:00,,0827.5,5.04,0.00,23.1,21.9,00.0,31.9,24.9,06.4,0000.0,0017.60,0005.43,0004.05
2022-12-20 20:41:00,,0827.5,4.95,0.00,23.1,21.9,00.0,31.9,24.9,06.4,0000.0,0017.58,0005.48,0004.10
2022-12-20 20:42:00,,0827.5,5.04,0.00,23.1,21.9,00.0,31.9,25.0,06.4,0000.0,0017.91,0005.55,0004.18
2022-12-20 20:43:00,,0827.5,5.01,0.00,23.1,21.9,00.0,31.9,25.0,06.4,0000.0,0018.04,0005.65,0004.27
2022-12-20 20:44:00,,0827.5,4.98,0.00,23.1,21.9,00.0,32.0,25.0,06.5,0000.0,0018.28,0005.82,0004.37
2022-12-20 20:45:00,,0827.5,5.02,0.00,23.1,21.9,00.0,32.0,25.0,06.5,0000.0,0019.18,0005.98,0004.46
2022-12-20 20:46:00,,0827.5,5.00,0.00,23.1,22.0,00.0,32.0,25.0,06.5,0000.0,0019.73,0006.05,0004.52
2022-12-20 20:47:00,,0827.5,4.99,0.00,23.2,21.9,00.0,32.0,25.0,06.5,0000.0,0019.46,0006.06,0004.58
2022-12-20 20:48:00,,0827.5,5.03,0.00,23.2,21.9,00.0,32.0,25.0,06.4,0000.0,0020.15,0006.10,0004.61
2022-12-20 20:49:00,,0827.5,4.95,0.00,23.2,21.9,00.0,32.0,25.0,06.4,0000.0,0021.46,0006.20,0004.64
2022-12-20 20:50:00,,0827.5,5.03,0.00,23.2,21.8,00.0,32.0,25.0,06.5,0000.0,0021.24,0006.35,0004.70
2022-12-20 20:51:00,,0827.5,5.01,0.00,23.2,21.8,00.0,32.0,25.0,06.7,0000.0,0022.84,0006.57,0004.81
2022-12-20 20:52:00,,0827.5,4.96,0.00,23.2,21.8,00.0,32.0,25.0,06.7,0000.0,0023.64,0006.83,0005.01
2022-12-20 20:53:00,,0827.4,5.04,0.00,23.2,21.8,00.0,32.0,25.0,06.8,0000.0,0024.71,0007.03,0005.19
2022-12-20 20:54:00,,0827.4,4.98,0.00,23.2,21.8,00.0,32.0,25.0,06.8,0000.0,0024.16,0007.25,0005.35
2022-12-20 20:55:00,,0827.4,4.99,0.00,23.2,21.8,00.0,32.0,25.0,06.8,0000.0,0025.04,0007.50,0005.51
2022-12-20 20:56:00,,0827.4,5.03,0.00,23.2,21.8,00.0,32.0,25.0,06.8,0000.0,0025.46,0007.74,0005.69
2022-12-20 20:57:00,,0827.4,4.95,0.00,23.2,21.8,00.0,32.0,25.0,06.8,0000.0,0027.06,0008.03,0005.85
2022-12-20 20:58:00,,0827.3,5.03,0.00,23.2,21.7,00.0,32.0,25.0,06.6,0000.0,0029.15,0008.20,0005.97
2022-12-20 20:59:00,,0827.3,5.00,0.00,23.2,21.7,00.0,32.0,25.0,06.6,0000.0,0030.08,0008.33,0006.06
